Weather History for Dublin, GA

Change the Weather History Date:

Tuesday, March 20, 2012

  Actual Average Record
Temperature  
Mean Temperature 68 °F -  
Max Temperature 84 °F 72 °F 88 °F (1982)
Min Temperature 53 °F 44 °F 30 °F (1985)
Cooling Degree Days 4    
Growing Degree Days 18 (Base 50)    
Moisture  
Dew Point 58 °F    
Average Humidity 68    
Maximum Humidity 100    
Minimum Humidity 40    
Precipitation  
Precipitation 0.00 in - - ()
Sea Level Pressure  
Sea Level Pressure 30.16 in    
Wind  
Wind Speed 4 mph (SE)    
Max Wind Speed 12 mph    
Max Gust Speed -    
Visibility 10 miles    
Events      
Averages and records for this station are not official NWS values.
T = Trace of Precipitation, MM = Missing Value Source: NWS Daily Summary

Daily Weather History Graph

Daily Weather History Graph

Search for Another Location

Airport:

Trip Planner

Search our weather history database for the weather conditions in past years. The results will help you decide how hot, cold, wet, or windy it might be!

Date:

Astronomy

Mar. 20, 2012 Rise Set
Actual Time 7:35 AM EDT 7:43 PM EDT
Civil Twilight 7:10 AM EDT 8:08 PM EDT
Nautical Twilight 6:41 AM EDT 8:37 PM EDT
Astronomical Twilight 6:13 AM EDT 9:06 PM EDT
Moon 6:12 AM EDT (3/20) 6:13 PM EDT (3/20)
Length of Visible Light 12h 57m
Length of Day
12h 08m
Waning Crescent, 4% of the Moon is Illuminated
Mar 20
Waning Crescent
Mar 22
New
Mar 30
First Quarter
Apr 6
Full
Apr 13
Last Quarter

Hourly Weather History & Observations

Time (EDT) Temp. Heat Index Dew Point Humidity Pressure Visibility Wind Dir Wind Speed Gust Speed Precip Events Conditions
12:15 AM 68.0 °F - 59.0 °F 73% 30.15 in 10.0 mi SSE 3.5 mph - N/A   Clear
12:35 AM 68.0 °F - 59.0 °F 73% 30.14 in 10.0 mi SE 3.5 mph - N/A   Clear
4:55 AM 55.4 °F - 55.4 °F 100% 30.13 in 10.0 mi Calm Calm - N/A   Clear
5:15 AM 55.4 °F - 55.4 °F 100% 30.13 in 10.0 mi Calm Calm - N/A   Clear
5:35 AM 55.4 °F - 55.4 °F 100% 30.13 in 10.0 mi Calm Calm - N/A   Clear
5:55 AM 57.2 °F - 55.4 °F 94% 30.14 in 10.0 mi Calm Calm - N/A   Clear
6:15 AM 55.4 °F - 53.6 °F 94% 30.15 in 10.0 mi Calm Calm - N/A   Clear
6:35 AM 55.4 °F - 55.4 °F 100% 30.15 in 10.0 mi Calm Calm - N/A   Clear
6:55 AM 55.4 °F - 53.6 °F 94% 30.16 in 10.0 mi Calm Calm - N/A   Clear
7:15 AM 53.6 °F - 53.6 °F 100% 30.17 in 5.0 mi Calm Calm - N/A   Clear
7:35 AM 53.6 °F - 53.6 °F 100% 30.17 in 7.0 mi Calm Calm - N/A   Clear
7:55 AM 53.6 °F - 53.6 °F 100% 30.18 in 7.0 mi Calm Calm - N/A   Clear
8:15 AM 55.4 °F - 55.4 °F 100% 30.18 in 7.0 mi Calm Calm - N/A   Clear
8:35 AM 60.8 °F - 59.0 °F 94% 30.18 in 10.0 mi Calm Calm - N/A   Clear
8:55 AM 62.6 °F - 59.0 °F 88% 30.19 in 10.0 mi Calm Calm - N/A   Clear
9:15 AM 64.4 °F - 60.8 °F 88% 30.19 in 10.0 mi Calm Calm - N/A   Clear
9:35 AM 66.2 °F - 60.8 °F 83% 30.20 in 10.0 mi South 3.5 mph - N/A   Clear
9:55 AM 68.0 °F - 62.6 °F 83% 30.21 in 10.0 mi South 5.8 mph - N/A   Clear
10:15 AM 69.8 °F - 62.6 °F 78% 30.21 in 10.0 mi SSW 4.6 mph - N/A   Clear
10:35 AM 71.6 °F - 62.6 °F 73% 30.21 in 10.0 mi SW 4.6 mph - N/A   Clear
10:55 AM 71.6 °F - 62.6 °F 73% 30.22 in 10.0 mi South 5.8 mph - N/A   Clear
11:15 AM 73.4 °F - 62.6 °F 69% 30.22 in 10.0 mi SSW 4.6 mph - N/A   Clear
11:35 AM 73.4 °F - 62.6 °F 69% 30.22 in 10.0 mi SE 4.6 mph - N/A   Scattered Clouds
11:55 AM 77.0 °F - 60.8 °F 57% 30.21 in 10.0 mi SSE 5.8 mph - N/A   Scattered Clouds
12:15 PM 77.0 °F - 60.8 °F 57% 30.21 in 10.0 mi ESE 6.9 mph - N/A   Scattered Clouds
12:35 PM 77.0 °F - 60.8 °F 57% 30.21 in 10.0 mi SE 3.5 mph - N/A   Clear
12:55 PM 78.8 °F - 60.8 °F 54% 30.20 in 10.0 mi South 4.6 mph - N/A   Clear
1:15 PM 78.8 °F - 60.8 °F 54% 30.20 in 10.0 mi East 5.8 mph - N/A   Clear
1:55 PM 78.8 °F - 60.8 °F 54% 30.18 in 10.0 mi SSE 4.6 mph - N/A   Scattered Clouds
2:15 PM 82.4 °F 82.5 °F 59.0 °F 45% 30.17 in 10.0 mi SSE 10.4 mph - N/A   Mostly Cloudy
2:35 PM 80.6 °F 81.1 °F 59.0 °F 48% 30.16 in 10.0 mi ESE 8.1 mph - N/A   Mostly Cloudy
2:55 PM 80.6 °F 81.1 °F 59.0 °F 48% 30.15 in 10.0 mi East 8.1 mph - N/A   Mostly Cloudy
3:15 PM 80.6 °F 80.8 °F 57.2 °F 45% 30.14 in 10.0 mi ESE 6.9 mph - N/A   Mostly Cloudy
3:55 PM 84.2 °F 83.8 °F 59.0 °F 42% 30.13 in 10.0 mi ESE 8.1 mph - N/A   Scattered Clouds
4:15 PM 84.2 °F 83.5 °F 57.2 °F 40% 30.12 in 10.0 mi SE 8.1 mph - N/A   Mostly Cloudy
4:35 PM 80.6 °F 80.8 °F 57.2 °F 45% 30.12 in 10.0 mi East 11.5 mph - N/A   Mostly Cloudy
4:55 PM 82.4 °F 82.0 °F 57.2 °F 42% 30.11 in 10.0 mi SE 5.8 mph - N/A   Scattered Clouds
5:15 PM 80.6 °F 80.5 °F 55.4 °F 42% 30.10 in 10.0 mi SE 6.9 mph - N/A   Scattered Clouds
5:35 PM 80.6 °F 80.8 °F 57.2 °F 45% 30.09 in 10.0 mi SSE 9.2 mph - N/A   Scattered Clouds
5:55 PM 80.6 °F 81.1 °F 59.0 °F 48% 30.09 in 10.0 mi South 10.4 mph - N/A   Scattered Clouds
6:15 PM 80.6 °F 81.1 °F 59.0 °F 48% 30.09 in 10.0 mi SSE 8.1 mph - N/A   Scattered Clouds
6:35 PM 80.6 °F 81.1 °F 59.0 °F 48% 30.09 in 10.0 mi SSE 9.2 mph - N/A   Scattered Clouds
6:55 PM 78.8 °F - 59.0 °F 51% 30.09 in 10.0 mi South 8.1 mph - N/A   Clear
7:35 PM 75.2 °F - 59.0 °F 57% 30.09 in 10.0 mi SE 3.5 mph - N/A   Clear
7:55 PM 75.2 °F - 59.0 °F 57% 30.10 in 10.0 mi ESE 3.5 mph - N/A   Clear
8:15 PM 73.4 °F - 59.0 °F 61% 30.10 in 10.0 mi SE 6.9 mph - N/A   Clear
8:35 PM 73.4 °F - 57.2 °F 57% 30.11 in 10.0 mi SE 6.9 mph - N/A   Clear
8:55 PM 73.4 °F - 57.2 °F 57% 30.13 in 10.0 mi SE 5.8 mph - N/A   Clear
9:15 PM 71.6 °F - 57.2 °F 60% 30.14 in 10.0 mi SE 3.5 mph - N/A   Clear
9:35 PM 71.6 °F - 55.4 °F 57% 30.15 in 10.0 mi SE 5.8 mph - N/A   Clear
9:55 PM 71.6 °F - 55.4 °F 57% 30.16 in 10.0 mi SE 4.6 mph - N/A   Clear
10:15 PM 69.8 °F - 57.2 °F 64% 30.17 in 10.0 mi SE 6.9 mph - N/A   Clear
10:35 PM 69.8 °F - 59.0 °F 68% 30.17 in 10.0 mi SE 5.8 mph - N/A   Clear
10:55 PM 69.8 °F - 59.0 °F 68% 30.18 in 10.0 mi SE 8.1 mph - N/A   Clear
11:15 PM 68.0 °F - 59.0 °F 73% 30.19 in 10.0 mi SE 5.8 mph - N/A   Clear
11:35 PM 68.0 °F - 59.0 °F 73% 30.19 in 10.0 mi SE 4.6 mph - N/A   Clear
11:55 PM 68.0 °F - 59.0 °F 73% 30.19 in 10.0 mi SE 4.6 mph - N/A   Clear